7 * 24
多渠道服务支持
MOLNIYA 1-32 是一颗俄罗斯军用通信卫星,于1998年12月23日由质子-K火箭从拜科努尔航天发射场发射升空。该卫星运行在高度椭圆轨道(Molniya轨道),周期约12小时,主要用于军事通信和战略指挥系统。MOLNIYA 系列卫星在俄罗斯航天和国防体系中发挥重要作用,尤其在高纬度地区提供稳定的通信覆盖。MOLNIYA 1-32 由俄罗斯信息连通部管理,是苏联/俄罗斯长期部署的Molniya卫星系列的一部分。
| 数据来源 | 国际轨道数据 |
| 星历时间: | 2025-10-14T04:59:03+0800 轨道信息已过期15天 |
| 半长轴: | 26605.169km |
| 偏心率: | 0.6706005 |
| 轨道倾角: | 63.649° |
| 近地点辐角 | 278.273° |
| 升交点赤经 | 159.772° |
| 平近点角 | 16.367° |
| 近地点: | 2385.594km |
| 远地点: | 38068.474km |
| 周期: | 719.795分钟 |
| 每日圈数: | 2.00057 |